sat.trackr.live / text

‹ back to catalog

LEMUR-2-FURIAUS

NORAD 42840 · 2017-042R

PAYLOAD ACTIVE UNKNOWN

§ Identity

Operator
Country
US
Launch date
2017-07-14
Launch site
TYMSC
Launch vehicle
Mass (kg)
RCS (m²)

Purposes: earth_obs

External: N2YO · Heavens-Above · Gunter

§ Orbital elements

Epoch: 2026-09-19T16:16:18.044832Z

Period
93.93 min
Inclination
97.3809°
Eccentricity
0.0007911
Mean motion
15.33094687 rev/d
Perigee alt
461.2 km
Apogee alt
472.0 km
Semi-major
6,844.7 km
B*
4.0344e-4
RAAN
80.8401°
Arg perigee
86.3487°
Mean anomaly
273.8660°
Rev number
50,267

§ Raw data

LEMUR-2-FURIAUS1 42840U 17042R   26262.67798663  .00012839  00000+0  40344-3 0  99922 42840  97.3809  80.8401 0007911  86.3487 273.8660 15.33094687502679

JSON: /api/v1/satellites/42840 · /tle

For live sub-satellite position, see the globe view (requires WebGL).

§ Visibility from observer

Set your observer location to see the next 7 days of passes ≥ 10°. The values pass through the URL so the page stays shareable.

No JS? Fill the form by hand. The geolocation button needs JavaScript.

§ Radio — SatNOGS DB

ModeDescriptionDownlinkUplink
FM Downlink 402.700 MHz
FM Downlink 2 402.670 MHz
BPSK UHF Unknown 400.550 MHz

3 transmitters · refreshed weekly from db.satnogs.org